GW1769 Weather Reports


time (UTC)temp
F
wind
direction
speed
knots
gust
knots
rain 1hr
in
rain 24hr
in
rain mn
in
humidity
%
barometer
mb
20260906182001 69 180 1.7 2.6 0.00 0.00 0.00 66 1013.2
20260906181456 69 212 0.9 1.7 0.00 0.00 0.00 69 1013.4
20260906180952 69 181 0.9 1.7 0.00 0.00 0.00 69 1013.2
20260906180446 71 171 0.0 0.0 0.00 0.00 0.00 72 1013.3
20260906175944 71 187 0.0 0.9 0.00 0.00 0.00 70 1013.5
20260906175439 71 182 0.0 0.0 0.00 0.00 0.00 68 1013.4
20260906174937 71 134 0.0 0.9 0.00 0.00 0.00 68 1013.4
20260906174432 70 175 0.9 0.9 0.00 0.00 0.00 68 1013.6
20260906173927 68 184 0.0 0.9 0.00 0.00 0.00 74 1013.5
20260906173422 69 157 0.0 0.0 0.00 0.00 0.00 76 1013.5
20260906172921 70 157 0.0 1.7 0.00 0.00 0.00 73 1013.4
20260906172418 69 173 1.7 1.7 0.00 0.00 0.00 73 1013.5
20260906171913 69 114 0.9 0.9 0.00 0.00 0.00 74 1013.5
20260906171407 68 188 1.7 1.7 0.00 0.00 0.00 71 1013.7
20260906170903 67 173 0.0 0.9 0.00 0.00 0.00 76 1013.8
20260906170359 65 164 0.0 0.0 0.00 0.00 0.00 82 1013.8
20260906165855 65 187 0.9 0.9 0.00 0.00 0.00 81 1013.7
20260906165355 65 177 0.0 0.0 0.00 0.00 0.00 81 1013.8
20260906164850 66 178 0.0 0.0 0.00 0.00 0.00 82 1013.7
20260906164349 66 166 0.0 0.0 0.00 0.00 0.00 80 1013.8
20260906163845 66 175 0.0 0.0 0.00 0.00 0.00 79 1013.8
20260906163341 67 149 0.0 0.0 0.00 0.00 0.00 78 1013.6
20260906162838 68 178 0.0 0.0 0.00 0.00 0.00 75 1013.6
20260906162337 69 163 0.0 0.9 0.00 0.00 0.00 76 1013.4
20260906161832 69 155 0.0 0.0 0.00 0.00 0.00 73 1013.6
20260906161332 71 138 1.7 1.7 0.00 0.00 0.00 71 1013.7
20260906160831 68 177 0.9 0.9 0.00 0.00 0.00 78 1013.7
20260906160325 68 185 0.0 0.0 0.00 0.00 0.00 74 1013.8
20260906155823 68 174 0.0 0.0 0.00 0.00 0.00 73 1013.8
20260906155317 70 182 0.0 0.0 0.00 0.00 0.00 73 1013.9
20260906154813 70 174 0.0 0.0 0.00 0.00 0.00 69 1013.7
20260906154302 70 176 0.0 0.0 0.00 0.00 0.00 70 1013.7
20260906153801 70 222 0.9 1.7 0.00 0.00 0.00 69 1013.7
20260906153255 69 2 1.7 1.7 0.00 0.00 0.00 74 1013.5
20260906152750 68 174 0.9 0.9 0.00 0.00 0.00 77 1013.7
20260906152245 67 191 0.0 0.0 0.00 0.00 0.00 78 1013.6
20260906151744 68 178 0.0 0.9 0.00 0.00 0.00 76 1013.6
20260906151240 68 226 2.6 4.3 0.00 0.00 0.00 75 1013.6
20260906150736 66 175 0.0 0.0 0.00 0.00 0.00 77 1013.7
20260906150231 67 108 0.9 0.9 0.00 0.00 0.00 76 1013.5
20260906145730 66 179 0.0 0.0 0.00 0.00 0.00 80 1013.7
20260906145229 66 177 0.0 0.0 0.00 0.00 0.00 78 1013.6
20260906144724 66 176 0.0 0.0 0.00 0.00 0.00 77 1013.5
20260906144219 65 182 0.0 0.9 0.00 0.00 0.00 80 1013.7
20260906143718 67 135 0.9 0.9 0.00 0.00 0.00 76 1013.4
20260906143216 68 175 0.0 0.0 0.00 0.00 0.00 75 1013.4
20260906142715 70 106 3.5 5.2 0.00 0.00 0.00 71 1013.6
20260906142211 69 148 0.9 0.9 0.00 0.00 0.00 72 1013.3
20260906141709 69 188 0.9 0.9 0.00 0.00 0.00 77 1013.2
20260906141204 67 200 1.7 1.7 0.00 0.00 0.00 75 1013.2
20260906140704 67 178 0.0 0.0 0.00 0.00 0.00 77 1013.1
20260906140159 66 177 0.0 0.0 0.00 0.00 0.00 81 1013.3
20260906135655 67 176 1.7 1.7 0.00 0.00 0.00 77 1013.2
20260906135152 66 183 0.0 0.0 0.00 0.00 0.00 79 1013.0
20260906134647 68 160 0.0 0.9 0.00 0.00 0.00 77 1013.1
20260906134142 68 174 0.0 0.9 0.00 0.00 0.00 74 1013.1
20260906133637 67 166 0.0 0.0 0.00 0.00 0.00 77 1013.1
20260906133132 65 173 0.0 0.9 0.00 0.00 0.00 82 1013.2
20260906132627 63 193 0.9 0.9 0.00 0.00 0.00 84 1013.2
20260906132123 61 176 0.0 0.0 0.00 0.00 0.00 88 1013.2
20260906131618 61 182 0.0 0.0 0.00 0.00 0.00 88 1013.3
20260906131113 61 203 0.9 0.9 0.00 0.00 0.00 88 1013.2
20260906130609 61 186 0.0 0.0 0.00 0.00 0.00 88 1013.3
20260906130103 62 166 0.0 0.9 0.00 0.00 0.00 86 1013.3
20260906125600 63 200 0.0 0.0 0.00 0.00 0.00 86 1013.3
20260906125054 64 202 0.9 0.9 0.00 0.00 0.00 86 1013.1
20260906124550 64 165 0.0 0.0 0.00 0.00 0.00 85 1013.1
20260906124045 64 182 0.0 0.0 0.00 0.00 0.00 87 1013.3
20260906123544 64 199 0.0 0.0 0.00 0.00 0.00 86 1013.1
20260906123039 64 179 0.0 0.9 0.00 0.00 0.00 87 1013.2
20260906122538 63 180 0.0 0.0 0.00 0.00 0.00 88 1013.0
20260906122035 62 172 0.0 0.0 0.00 0.00 0.00 88 1013.1
20260906121531 62 185 0.0 0.0 0.00 0.00 0.00 89 1012.8
20260906121027 62 169 0.9 1.7 0.00 0.00 0.00 88 1012.7
20260906120522 61 182 0.0 0.0 0.00 0.00 0.00 88 1013.0
20260906120020 62 140 0.0 0.9 0.00 0.00 0.00 90 1012.7
20260906115519 61 185 0.0 0.0 0.00 0.00 0.00 91 1012.8
20260906115014 60 197 0.9 1.7 0.00 0.00 0.00 93 1012.7
20260906114508 60 177 0.0 0.0 0.00 0.00 0.00 95 1012.5
20260906114004 59 180 0.0 0.0 0.00 0.00 0.00 95 1012.6
20260906113503 59 179 0.0 0.0 0.00 0.00 0.00 95 1012.5
20260906112958 59 184 0.0 0.0 0.00 0.00 0.00 97 1012.4
20260906112453 59 179 0.0 0.0 0.00 0.00 0.00 97 1012.4
20260906111949 58 179 0.0 0.0 0.00 0.00 0.00 97 1012.3
20260906111449 58 179 0.0 0.0 0.00 0.00 0.00 97 1012.3
20260906110944 59 176 0.0 0.0 0.00 0.00 0.00 97 1012.2
20260906110439 59 179 0.0 0.0 0.00 0.00 0.00 97 1012.0
20260906105938 59 176 0.0 0.0 0.00 0.00 0.00 97 1012.2
20260906105434 59 178 0.0 0.0 0.00 0.00 0.00 97 1012.2
20260906104930 59 178 0.0 0.0 0.00 0.00 0.00 97 1012.0
20260906104428 59 183 0.0 0.0 0.00 0.00 0.00 97 1012.0
20260906103928 59 177 0.0 0.0 0.00 0.00 0.00 96 1012.1
20260906103426 59 177 0.0 0.0 0.00 0.00 0.00 96 1012.1
20260906102921 59 176 0.0 0.0 0.00 0.00 0.00 96 1011.9
20260906102421 59 169 0.0 0.0 0.00 0.00 0.00 96 1011.5
20260906101915 59 179 0.0 0.0 0.00 0.00 0.00 96 1011.8
20260906101411 59 182 0.0 0.0 0.00 0.00 0.00 97 1011.6
20260906100907 59 188 0.0 0.0 0.00 0.00 0.00 97 1011.5
20260906100406 59 177 0.0 0.0 0.00 0.00 0.00 98 1011.5
20260906095900 59 176 0.0 0.0 0.00 0.00 0.00 98 1011.2
20260906095356 59 180 0.0 0.0 0.00 0.00 0.00 99 1011.3
20260906094850 59 177 0.0 0.0 0.00 0.00 0.00 99 1011.4
20260906094345 59 180 0.0 0.0 0.00 0.00 0.00 99 1011.4
20260906093841 59 175 0.0 0.0 0.00 0.00 0.00 99 1011.3
20260906093337 59 171 0.0 0.0 0.00 0.00 0.00 99 1011.1
20260906092832 59 184 0.0 0.0 0.00 0.00 0.00 99 1011.1
20260906092331 59 176 0.0 0.0 0.00 0.00 0.00 99 1011.3
20260906091827 59 184 0.0 0.0 0.00 0.00 0.00 99 1011.0
20260906091323 59 180 0.0 0.0 0.00 0.00 0.00 99 1010.9
20260906090820 59 184 0.0 0.0 0.00 0.00 0.00 99 1011.0
20260906090318 59 181 0.0 0.0 0.00 0.00 0.00 99 1010.8
20260906085818 59 181 0.0 0.0 0.00 0.00 0.00 99 1010.9
20260906085311 59 181 0.0 0.0 0.00 0.00 0.00 99 1010.9
20260906084807 59 181 0.0 0.0 0.00 0.00 0.00 99 1010.8
20260906084306 59 181 0.0 0.0 0.00 0.00 0.00 99 1010.8
20260906083801 59 184 0.0 0.0 0.00 0.00 0.00 99 1010.7
20260906083257 59 184 0.0 0.0 0.00 0.00 0.00 99 1010.8
20260906082751 59 180 0.0 0.0 0.00 0.00 0.00 99 1010.5
20260906082246 59 177 0.0 0.0 0.00 0.00 0.00 99 1010.8
20260906081742 59 183 0.0 0.0 0.00 0.00 0.00 99 1010.7
20260906081237 59 179 0.0 0.0 0.00 0.00 0.00 98 1010.5
20260906080733 59 181 0.0 0.0 0.00 0.00 0.00 98 1010.5
20260906080230 60 179 0.0 0.0 0.00 0.00 0.00 98 1010.5
20260906075723 60 184 0.0 0.0 0.00 0.00 0.00 98 1010.5
20260906075218 60 177 0.0 0.0 0.00 0.00 0.00 97 1010.7
20260906074713 60 177 0.0 0.0 0.00 0.00 0.00 97 1010.7
20260906074213 60 179 0.0 0.0 0.00 0.00 0.00 97 1010.7
20260906073707 60 180 0.0 0.0 0.00 0.00 0.00 97 1010.7
20260906073203 60 177 0.0 0.0 0.00 0.00 0.00 98 1010.5
20260906072658 60 178 0.0 0.0 0.00 0.00 0.00 98 1010.7
20260906072154 60 178 0.0 0.0 0.00 0.00 0.00 98 1010.4
20260906071650 60 178 0.0 0.0 0.00 0.00 0.00 98 1010.8
20260906071149 60 177 0.0 0.0 0.00 0.00 0.00 98 1010.5
20260906070646 60 171 0.0 0.0 0.00 0.00 0.00 98 1010.7
20260906070141 60 177 0.0 0.0 0.00 0.00 0.00 98 1010.4
20260906065641 60 176 0.0 0.0 0.00 0.00 0.00 99 1010.8
20260906065136 60 177 0.0 0.0 0.00 0.00 0.00 99 1010.5
20260906064632 60 175 0.0 0.0 0.00 0.00 0.00 99 1010.2
20260906064127 60 179 0.0 0.0 0.00 0.00 0.00 99 1010.2
20260906063622 60 179 0.0 0.0 0.00 0.00 0.00 99 1010.2
20260906063118 60 180 0.0 0.0 0.00 0.00 0.00 99 1010.4
20260906062613 60 179 0.0 0.0 0.00 0.00 0.00 99 1010.3
20260906062112 60 179 0.0 0.0 0.00 0.00 0.00 99 1010.3
20260906061609 60 183 0.0 0.0 0.00 0.00 0.00 98 1010.4
20260906061108 60 179 0.0 0.0 0.00 0.00 0.00 98 1010.3
20260906060605 60 179 0.0 0.0 0.00 0.00 0.00 98 1010.5
20260906055557 60 179 0.0 0.0 0.00 0.00 0.00 98 1010.7
20260906055053 60 181 0.0 0.0 0.00 0.00 0.00 98 1010.5
20260906054552 60 183 0.0 0.0 0.00 0.00 0.00 98 1010.9
20260906054048 60 183 0.0 0.0 0.00 0.00 0.00 98 1010.5
20260906053544 60 181 0.0 0.0 0.00 0.00 0.00 98 1010.8
20260906053039 60 175 0.0 0.0 0.00 0.00 0.00 99 1010.8
20260906052535 60 179 0.0 0.0 0.00 0.00 0.00 99 1010.9
20260906052032 60 183 0.0 0.0 0.00 0.00 0.00 99 1010.9
20260906051527 60 181 0.0 0.0 0.00 0.00 0.00 99 1011.0
20260906051022 60 183 0.0 0.0 0.00 0.00 0.00 99 1010.8
20260906050517 60 180 0.0 0.0 0.00 0.00 0.00 99 1010.5
20260906050012 60 179 0.0 0.0 0.00 0.00 0.00 99 1010.8
20260906045510 60 180 0.0 0.0 0.00 0.00 0.00 99 1010.5
20260906045006 60 180 0.0 0.0 0.00 0.00 0.00 99 1010.9
20260906044502 60 180 0.0 0.0 0.00 0.00 0.00 99 1010.8
20260906043957 60 182 0.0 0.0 0.00 0.00 0.00 99 1010.8
20260906043453 60 182 0.0 0.0 0.00 0.00 0.00 99 1010.9
20260906042949 60 180 0.0 0.0 0.00 0.00 0.00 99 1011.0
20260906042448 60 184 0.0 0.0 0.00 0.00 0.00 99 1011.2
20260906041948 60 184 0.0 0.0 0.00 0.00 0.00 99 1010.8
20260906041444 60 192 0.0 0.0 0.00 0.00 0.00 99 1010.9
20260906040943 60 181 0.0 0.0 0.00 0.00 0.00 99 1010.8
20260906040438 60 183 0.0 0.0 0.00 0.00 0.00 99 1010.8
20260906035934 60 183 0.0 0.0 0.00 0.00 0.00 99 1010.9
20260906035429 61 183 0.0 0.0 0.00 0.00 0.00 99 1010.7
20260906034924 60 184 0.0 0.0 0.00 0.00 0.00 99 1010.4
20260906034419 61 181 0.0 0.0 0.00 0.00 0.00 99 1010.5
20260906033915 61 179 0.0 0.0 0.00 0.00 0.00 99 1010.5
20260906033415 61 183 0.0 0.0 0.00 0.00 0.00 99 1010.7
20260906032910 61 186 0.0 0.0 0.00 0.00 0.00 99 1010.7
20260906032407 61 179 0.0 0.0 0.00 0.00 0.00 98 1010.5
20260906031901 61 180 0.0 0.0 0.00 0.00 0.00 98 1010.5
20260906031356 61 181 0.0 0.0 0.00 0.00 0.00 98 1010.5
20260906030851 61 187 0.0 0.0 0.00 0.00 0.00 98 1010.3
20260906030346 61 180 0.0 0.0 0.00 0.00 0.00 98 1010.3
20260906025841 61 180 0.0 0.0 0.00 0.00 0.00 99 1010.3
20260906025335 61 180 0.0 0.0 0.00 0.00 0.00 99 1010.5
20260906024834 61 181 0.0 0.0 0.00 0.00 0.00 99 1010.3
20260906024333 61 179 0.0 0.0 0.00 0.00 0.00 98 1010.1
20260906023829 61 180 0.0 0.0 0.00 0.00 0.00 98 1010.1
20260906023324 61 180 0.0 0.0 0.00 0.00 0.00 98 1010.4
20260906022820 61 180 0.0 0.0 0.00 0.00 0.00 98 1010.2
20260906022315 61 183 0.0 0.0 0.00 0.00 0.00 98 1010.3
20260906021810 62 177 0.0 0.0 0.00 0.00 0.00 98 1010.3
20260906021309 62 182 0.0 0.0 0.00 0.00 0.00 98 1010.1
20260906020804 62 184 0.0 0.0 0.00 0.00 0.00 98 1010.0
20260906020259 62 183 0.0 0.0 0.00 0.00 0.00 98 1010.2
20260906015758 62 181 0.0 0.0 0.00 0.00 0.00 97 1010.0
20260906015257 62 187 0.0 0.0 0.00 0.00 0.00 97 1010.1
20260906014752 62 184 0.0 0.0 0.00 0.00 0.00 97 1010.2
20260906014247 62 185 0.0 0.0 0.00 0.00 0.00 96 1009.9
20260906013743 62 177 0.0 0.0 0.00 0.00 0.00 96 1009.9
20260906013243 62 179 0.0 0.0 0.00 0.00 0.00 96 1010.0
20260906012739 62 177 0.0 0.0 0.00 0.00 0.00 96 1010.2
20260906012233 63 177 0.0 0.0 0.00 0.00 0.00 95 1009.9
20260906011729 63 179 0.0 0.0 0.00 0.00 0.00 95 1010.0
20260906011223 63 180 0.0 0.0 0.00 0.00 0.00 94 1010.0
20260906010718 63 177 0.0 0.0 0.00 0.00 0.00 94 1010.0
20260906010215 63 177 0.0 0.0 0.00 0.00 0.00 94 1009.7
20260906005714 63 175 0.0 0.0 0.00 0.00 0.00 95 1009.7
20260906005209 63 177 0.0 0.0 0.00 0.00 0.00 96 1009.9
20260906004708 63 177 0.0 0.0 0.00 0.00 0.00 95 1009.9
20260906004203 62 179 0.0 0.0 0.00 0.00 0.00 96 1010.0
20260906003658 63 179 0.0 0.0 0.00 0.00 0.00 96 1009.9
20260906003154 63 179 0.0 0.0 0.00 0.00 0.00 97 1009.8
20260906002654 63 179 0.0 0.0 0.00 0.00 0.00 96 1009.8
20260906002148 63 179 0.0 0.0 0.00 0.00 0.00 96 1009.8
20260906001643 63 181 0.0 0.0 0.00 0.00 0.00 96 1009.7
20260906001138 64 179 0.0 0.0 0.00 0.00 0.00 96 1009.7
20260906000634 64 184 0.0 0.0 0.00 0.00 0.00 95 1009.8
20260906000129 63 176 0.0 0.0 0.00 0.00 0.00 95 1009.4
20260905235627 64 178 0.0 0.0 0.00 0.00 0.00 96 1009.7
20260905235123 64 177 0.0 0.0 0.00 0.00 0.00 95 1009.5
20260905234618 64 177 0.0 0.0 0.00 0.00 0.00 95 1009.5
20260905234113 64 179 0.0 0.0 0.00 0.00 0.00 95 1009.5
20260905233608 64 179 0.0 0.0 0.00 0.00 0.00 95 1009.4
20260905233103 65 177 0.0 0.0 0.00 0.00 0.00 95 1009.6
20260905232558 65 179 0.0 0.0 0.00 0.00 0.00 94 1009.5
20260905232054 65 177 0.0 0.0 0.00 0.00 0.00 94 1009.7
20260905231548 65 176 0.0 0.0 0.00 0.00 0.00 94 1009.6
20260905231045 65 177 0.0 0.0 0.00 0.00 0.00 94 1009.3
20260905230544 66 177 0.0 0.0 0.00 0.00 0.00 94 1009.7
20260905230043 66 180 0.0 0.0 0.00 0.00 0.00 93 1009.4
20260905225537 67 181 0.0 0.0 0.00 0.00 0.00 92 1009.3
20260905225033 67 177 0.0 0.0 0.00 0.00 0.00 91 1009.3
20260905224532 67 177 0.0 0.0 0.00 0.00 0.00 89 1009.1
20260905224032 67 177 0.0 0.0 0.00 0.00 0.00 88 1009.2
20260905223530 67 177 0.0 0.0 0.00 0.00 0.00 87 1009.2
20260905223025 67 177 0.0 0.0 0.00 0.00 0.00 86 1009.0
20260905222525 68 176 0.0 0.0 0.00 0.00 0.00 85 1008.9
20260905222020 68 176 0.0 0.0 0.00 0.00 0.00 86 1009.1
20260905221517 68 180 0.0 0.0 0.00 0.00 0.00 85 1009.1
20260905221013 68 177 0.0 0.0 0.00 0.00 0.00 84 1009.1
20260905220508 69 177 0.0 0.0 0.00 0.00 0.00 83 1009.0
20260905220004 68 181 0.0 0.0 0.00 0.00 0.00 82 1009.1
20260905215458 69 179 0.0 0.0 0.00 0.00 0.00 86 1009.2
20260905214954 69 181 0.0 0.0 0.00 0.00 0.00 87 1008.6
20260905214450 69 180 0.0 0.0 0.00 0.00 0.00 85 1008.7
20260905213950 69 186 0.0 0.0 0.00 0.00 0.00 84 1008.5
20260905213446 69 141 0.0 0.0 0.00 0.00 0.00 86 1008.8
20260905212941 69 171 0.0 0.0 0.00 0.00 0.00 85 1008.7
20260905212436 69 175 0.0 0.0 0.00 0.00 0.00 85 1008.7
20260905211935 69 174 0.0 0.0 0.00 0.00 0.00 83 1008.7
20260905211431 69 183 0.0 0.0 0.00 0.00 0.00 86 1008.9
20260905210927 69 181 0.0 0.0 0.00 0.00 0.00 85 1008.9
20260905210426 70 177 0.0 0.0 0.00 0.00 0.00 85 1008.8
20260905205926 69 178 0.0 0.0 0.00 0.00 0.00 85 1008.9
20260905205421 70 179 0.0 0.0 0.00 0.00 0.00 83 1008.6
20260905204920 70 184 0.0 0.0 0.00 0.00 0.00 81 1008.8
20260905204416 71 184 0.0 0.0 0.00 0.00 0.00 84 1008.9
20260905203915 71 174 0.0 0.0 0.00 0.00 0.00 81 1008.7
20260905203410 71 181 0.0 0.0 0.00 0.00 0.00 84 1008.5
20260905202906 69 186 0.0 0.0 0.00 0.00 0.00 88 1008.7
20260905202401 70 176 0.0 0.0 0.00 0.00 0.00 86 1008.8
20260905201856 69 172 0.0 0.0 0.00 0.00 0.00 82 1008.8
20260905201352 70 182 0.0 0.0 0.00 0.00 0.00 85 1008.6
20260905200846 70 193 0.0 0.0 0.00 0.00 0.00 82 1008.7
20260905200342 69 184 0.0 0.0 0.00 0.00 0.00 80 1008.5
20260905195839 69 183 0.0 0.0 0.00 0.00 0.00 86 1008.5
20260905195335 70 173 0.0 0.9 0.00 0.00 0.00 86 1008.6
20260905194831 70 184 0.0 0.0 0.00 0.00 0.00 83 1008.6
20260905194325 69 188 0.0 0.0 0.00 0.00 0.00 84 1008.5
20260905193824 68 180 0.0 0.0 0.00 0.00 0.00 84 1008.4
20260905193319 68 180 0.0 0.0 0.00 0.00 0.00 86 1008.4
20260905192815 68 179 0.0 0.0 0.00 0.00 0.00 87 1008.2
20260905192311 68 179 0.0 0.0 0.00 0.00 0.00 90 1008.3
20260905191810 67 177 0.0 0.0 0.00 0.00 0.00 91 1008.4
20260905191308 66 177 0.0 0.0 0.00 0.00 0.00 93 1008.6
20260905190807 65 184 0.0 0.0 0.00 0.00 0.00 93 1008.6
20260905190306 65 183 0.0 0.0 0.00 0.00 0.00 92 1008.8
20260905185800 66 179 0.0 0.0 0.00 0.00 0.00 92 1008.8
20260905185254 66 176 0.0 0.0 0.00 0.00 0.00 90 1008.8
20260905184748 67 155 0.0 0.0 0.00 0.00 0.00 88 1008.8
20260905184248 68 177 0.0 0.0 0.00 0.00 0.00 85 1009.0
20260905183747 69 167 0.0 0.0 0.00 0.00 0.00 83 1008.6
20260905183242 70 170 0.0 0.0 0.00 0.00 0.00 80 1008.6
20260905182736 71 164 0.0 0.0 0.00 0.00 0.00 78 1008.5
20260905182236 73 149 0.0 0.0 0.00 0.00 0.00 74 1008.3